User: anonymous   Login
Location: Unspecified
(0.0000°N, 0.0000°E)
Time: 01:06:07
(UTC+00:00)
Language:

STARLINK-31213 - Orbit

View from above orbital plane
View from above orbital plane
View from above satellite
View from above satellite

Ground track
Ground track

The orbit is defined by the following mean orbital elements,

1 58860U          26145.45763847 +.00000000 +00000-0 +65845-4 0 00004
2 58860  43.0021 175.3292 0001249 274.2582  85.8127 15.27581509    08
Epoch (UTC): 25 May 2026 10:58:59
Eccentricity: 0.0001249
inclination: 43.0021°
perigee height: 482 km
apogee height: 484 km
right ascension of ascending node: 175.3292°
argument of perigee: 274.2582°
revolutions per day: 15.27581509
mean anomaly at epoch: 85.8127°

The dashed part of the orbit path shows where the satellite is in the earth's shadow,  

DLR